GW0274 Weather Reports


time (UTC)temp
C
wind
direction
speed
KPH
gust
KPH
rain 1hr
cm
rain 24hr
cm
rain mn
cm
humidity
%
barometer
mb
20260505070100 6 0 0.0 3.2 0.00 0.00 0.00 86 1007.3
20260505064552 6 0 0.0 0.0 0.00 0.00 0.00 86 1007.1
20260505063050 6 0 0.0 1.6 0.00 0.00 0.00 86 1006.8
20260505061552 6 0 0.0 1.6 0.00 0.00 0.00 85 1006.5
20260505060059 6 0 0.0 8.0 0.00 0.00 0.00 85 1006.5
20260505054552 6 0 0.0 12.9 0.00 0.00 0.00 84 1006.1
20260505053100 6 0 0.0 0.0 0.00 0.00 0.00 84 1005.8
20260505051604 6 0 0.0 3.2 0.00 0.00 0.00 84 1005.7
20260505050106 6 0 0.0 1.6 0.00 0.00 0.00 83 1005.5
20260505041603 7 0 0.0 8.0 0.00 0.00 0.00 81 1005.0
20260505040056 7 0 0.0 1.6 0.00 0.00 0.00 81 1004.9
20260505034554 7 0 0.0 12.9 0.00 0.00 0.00 81 1004.8
20260505033045 7 127 0.0 8.0 0.00 0.00 0.00 81 1004.7
20260505031554 7 0 0.0 4.8 0.00 0.00 0.00 80 1004.3
20260505030048 7 0 0.0 4.8 0.00 0.00 0.00 80 1004.2
20260505024554 7 0 0.0 0.0 0.00 0.00 0.00 80 1003.9
20260505023052 7 0 0.0 14.5 0.00 0.00 0.00 80 1003.7
20260505021552 7 0 0.0 4.8 0.00 0.00 0.00 79 1003.6
20260505020048 8 0 0.0 14.5 0.00 0.00 0.00 77 1003.4
20260505014549 8 0 0.0 9.7 0.00 0.00 0.00 75 1003.3
20260505013107 8 0 0.0 14.5 0.00 0.00 0.00 73 1003.1
20260505011600 8 0 0.0 9.7 0.00 0.00 0.00 72 1002.8
20260505010100 8 0 0.0 9.7 0.00 0.00 0.00 70 1002.5
20260505004555 8 0 0.0 19.3 0.00 0.00 0.00 71 1002.5
20260505003103 8 0 0.0 1.6 0.00 0.00 0.00 71 1002.3
20260505001549 7 179 0.0 14.5 0.00 0.00 0.00 70 1002.3
20260505000058 7 0 0.0 1.6 0.00 0.00 0.00 73 1002.1
20260504234552 6 265 0.0 0.0 0.00 0.00 0.00 73 1002.0
20260504233100 7 0 0.0 0.0 0.00 0.00 0.00 72 1001.8
20260504231549 7 0 0.0 9.7 0.00 0.00 0.00 70 1001.6
20260504230056 7 0 0.0 0.0 0.00 0.00 0.00 72 1001.5
20260504224552 7 0 0.0 0.0 0.00 0.00 0.00 71 1001.6
20260504223104 8 0 0.0 0.0 0.00 0.00 0.00 69 1001.5
20260504221552 8 0 0.0 1.6 0.00 0.00 0.00 68 1001.2
20260504220057 8 0 0.0 0.0 0.00 0.00 0.00 67 1001.2
20260504214601 9 0 0.0 1.6 0.00 0.00 0.00 65 1001.1
20260504213057 9 0 0.0 0.0 0.00 0.00 0.00 67 1000.8
20260504211556 10 0 0.0 4.8 0.00 0.00 0.00 65 1000.6
20260504210058 9 0 0.0 19.3 0.00 0.00 0.00 66 1000.3
20260504204551 10 0 0.0 12.9 0.00 0.00 0.00 68 1000.0
20260504203048 9 0 0.0 12.9 0.00 0.00 0.00 69 999.8
20260504201559 9 0 0.0 20.9 0.00 0.00 0.00 72 999.7
20260504200050 9 0 0.0 9.7 0.00 0.00 0.00 73 999.4
20260504194552 9 0 0.0 12.9 0.00 0.00 0.00 75 998.9
20260504193049 9 0 0.0 12.9 0.00 0.00 0.00 73 998.9
20260504191556 9 0 0.0 3.2 0.00 0.00 0.00 75 998.8
20260504190058 9 0 0.0 8.0 0.00 0.00 0.00 74 998.5
20260504184611 8 0 0.0 8.0 0.00 0.00 0.00 81 998.4
20260504183049 7 0 0.0 1.6 0.00 0.00 0.00 85 998.3
20260504181557 6 0 0.0 6.4 0.00 0.00 0.00 87 998.2
20260504180049 6 0 0.0 6.4 0.00 0.00 0.00 87 998.2
20260504174549 6 0 0.0 3.2 0.00 0.00 0.00 87 998.0
20260504173049 6 0 0.0 1.6 0.00 0.00 0.00 89 997.6
20260504171550 5 0 0.0 3.2 0.00 0.00 0.00 90 997.4
20260504081552 2 0 0.0 0.0 0.00 0.00 0.00 94 976.5